SKYNET 5D

Last updated on Wed Sep 17 2025 00:02:48 GMT+0000 (Coordinated Universal Time)

1 39034U 12075A 25259.59413206 .00000080 00000+0 00000+0 0 9993 2 39034 0.0730 348.1610 0004145 204.6747 69.5609 1.00272801 46419
UTC large
Height (km)
Speed (km/s)
/
Latitude / Longitude
Inclination (degrees)
Orbital Period (minutes)
Azimuth
Elevation
Range (km)
Doppler Factor

Next 0 passes for location: London (51.5072 / 0.1276)

Sorry there are no passes over London.